• Join FlightAware (Why Join?)
  • Login
  • US Flag 
04:58AM EST


 

Airport Tracker/Info


-or-


 

Live Flight TrackerFlight Track Log ✈ N954BL ✈ 30-Apr-2013 ✈ KSAF - KBJC

Flight Track Log - Related Links

Times and Time Zones

All times are in EDT time to prevent confusion due to time zone crossing. See the N954BL flight status page for this flight to view local times or setup timezone preferences in your user account.

Time Position Orientation Groundspeed Altitude Reporting Facility
EDT Latitude Longitude Course Direction KTS MPH feet Rate Location/Type
03:46PM 35.5972 -106.1086 10° North 152 175 7,400  Level Albuquerque Center
03:47PM 35.6169 -106.1436 305° West 167 192 9,000 1,920 Climbing Albuquerque Center
03:48PM 35.6764 -106.1353 North 179 206 11,400 2,100 Climbing Albuquerque Center
03:49PM 35.7264 -106.1258 North 180 207 13,400 1,800 Climbing Albuquerque Center
03:50PM 36.0186 -106.0032 10° North  Level Estimated
03:50PM 35.7778 -106.1172 North 184 212 15,200  Level Albuquerque Center
03:51PM 36.0855 -105.9887 10° North  Level Estimated
03:51PM 35.8308 -106.1067 North 190 219 17,300  Level Albuquerque Center
03:52PM 35.8856 -106.0986 North 196 226 18,900 1,380 Climbing Albuquerque Center
03:53PM 35.9428 -106.0889 North 204 235 20,200 1,380 Climbing Albuquerque Center
03:54PM 35.9997 -106.0786 North 206 237 21,800 1,440 Climbing Albuquerque Center
03:55PM 36.0700 -106.0689 North 210 242 23,200 1,140 Climbing Albuquerque Center
03:56PM 36.1308 -106.0572 North 217 250 24,200 1,020 Climbing Albuquerque Center
03:57PM 36.1925 -106.0486 North 221 254 25,400 960 Climbing Albuquerque Center
03:58PM 36.2531 -106.0394 North 221 254 26,300 840 Climbing Albuquerque Center
03:59PM 36.3128 -106.0289 North 221 254 27,200 780 Climbing Albuquerque Center
04:00PM 36.3742 -106.0200 North 223 257 28,000 480 Climbing Albuquerque Center
04:01PM 36.4506 -106.0050 North 231 266 28,200 420 Climbing Albuquerque Center
04:02PM 36.5186 -105.9947 North 245 282 28,900 720 Climbing Albuquerque Center
04:03PM 36.5792 -105.9842 North 238 274 29,700 780 Climbing Albuquerque Center
04:04PM 36.6472 -105.9731 North 224 258 30,500 600 Climbing Albuquerque Center
04:05PM 36.7075 -105.9617 North 224 258 31,000 240 Climbing Denver Center
04:06PM 36.7764 -105.9489 North 234 269 31,000  Level Denver Center
04:07PM 36.8514 -105.9361 North 240 276 31,000  Level Denver Center
04:08PM 36.9222 -105.9239 North 259 298 31,000  Level Denver Center
04:09PM 36.9958 -105.9108 North 271 312 31,000  Level Denver Center
04:10PM 37.0844 -105.8956 North 278 320 31,000  Level Denver Center
04:11PM 37.1594 -105.8833 North 283 326 31,000  Level Denver Center
04:12PM 37.2442 -105.8678 North 277 319 31,000  Level Denver Center
04:13PM 37.3181 -105.8544 North 279 321 31,000  Level Denver Center
04:14PM 37.3939 -105.8411 North 286 329 31,000  Level Denver Center
04:16PM 37.4856 -105.8256 North 296 341 31,000  Level Denver Center
04:17PM 37.5594 -105.8117 North 288 331 31,000  Level Denver Center
04:18PM 37.6458 -105.7972 North 280 322 31,000  Level Denver Center
04:19PM 37.7200 -105.7842 North 279 321 31,000  Level Denver Center
04:20PM 37.8081 -105.7683 North 283 326 31,000  Level Denver Center
04:21PM 37.8781 -105.7561 North 287 330 31,000  Level Denver Center
04:22PM 37.9583 -105.7397 North 286 329 31,000  Level Denver Center
04:23PM 38.0469 -105.7253 North 286 329 31,000  Level Denver Center
04:24PM 38.1478 -105.7075 North 285 328 31,000  Level Denver Center
04:25PM 38.2236 -105.6928 North 287 330 31,000 -300 Level Denver Center
04:26PM 38.2978 -105.6806 North 283 326 30,500 -540 Descending Denver Center
04:27PM 38.3953 -105.6633 North 308 354 29,900 -600 Descending Denver Center
04:28PM 38.4800 -105.6472 North 317 365 29,300 -720 Descending Denver Center
04:29PM 38.5625 -105.6328 North 314 361 28,500 -840 Descending Denver Center
04:30PM 38.6450 -105.6156 North 314 361 27,600 -1,020 Descending Denver Center
04:31PM 38.7519 -105.5961 North 308 354 26,500 -1,020 Descending Denver Center
04:32PM 38.8308 -105.5842 North 303 349 25,600 -960 Descending Denver Center
04:33PM 38.9103 -105.5683 North 302 348 24,600 -1,140 Descending Denver Center
04:34PM 38.9881 -105.5553 North 267 307 23,300 -1,260 Descending Denver Center
04:35PM 39.0572 -105.5433 North 260 299 22,100 -1,260 Descending Denver Center
04:36PM 39.1381 -105.5272 North 264 304 20,700 -1,140 Descending Denver Center
04:37PM 39.1986 -105.5169 North 255 293 19,800 -1,080 Descending Denver Center
04:38PM 39.2667 -105.5047 North 250 288 18,500 -1,320 Descending Denver Center
04:39PM 39.3342 -105.4917 North 247 284 17,100 -1,320 Descending Denver Center
04:40PM 39.4106 -105.4564 20° North 251 289 15,800 -1,200 Descending Denver Center
04:41PM 39.4517 -105.3853 53° Northeast 246 283 14,700 -1,140 Descending Denver Center
04:42PM 39.4942 -105.3142 52° Northeast 234 269 13,500 -960 Descending Denver Center
04:43PM 39.5339 -105.2464 53° Northeast 235 270 12,800 -1,080 Descending Denver Center
04:45PM 39.5639 -105.1719 62° Northeast 234 269 11,400 -1,080 Descending Denver Center
04:46PM 39.5994 -105.1078 54° Northeast 215 247 10,600 -840 Descending Denver Center
04:47PM 39.6619 -105.1108 358° North 224 258 9,700 -840 Descending Denver Center
04:48PM 39.7211 -105.1306 346° North 221 254 8,900 -780 Descending Denver Center
04:49PM 39.7844 -105.1506 346° North 218 251 8,200 -660 Descending Denver Center
04:50PM 39.8381 -105.1619 351° North 201 231 7,600 -540 Descending Denver Center
04:51PM 39.8856 -105.1728 350° North 180 207 7,200 -660 Descending Denver Center
04:52PM 39.9233 -105.1550 20° North 150 173 6,300 -780 Descending Denver Center
04:53PM 39.9114 -105.1211 115° Southeast 118 136 5,600 -720 Descending Denver Center
04:55PM 39.9088 -105.1172 131° Southeast  Level Estimated
05:02PM 39.9088 -105.1172 217° Southwest  Level Estimated
05:03PM 39.9088 -105.1172 217° Southwest  Level Estimated